GEFSMA_prec_meanprec_246.txt.gz
QPF
0.01 0.01 0.01 0.01 0.02 0.02 0.01 0.01 0.01 0.01 0.01 0.01 0.01 0.01 0.00 0.01 0.01 0.01 0.03 0.05 0.05 0.06 0.06 0.07 0.06 0.05 0.03 0.03 0.03 0.03 0.03 0.02 0.02 0.02 0.03 0.03 0.03 0.04 0.04 0.04 0.06 0.09 0.10
0.01 0.01 0.01 0.01 0.02 0.02 0.01 0.01 0.02 0.01 0.01 0.01 0.01 0.01 0.01 0.01 0.01 0.01 0.01 0.02 0.04 0.05 0.06 0.06 0.06 0.05 0.05 0.05 0.05 0.03 0.03 0.02 0.02 0.03 0.03 0.04 0.03 0.03 0.03 0.03 0.04 0.06 0.07
0.01 0.00 0.00 0.01 0.01 0.01 0.01 0.01 0.02 0.02 0.01 0.01 0.03 0.02 0.02 0.01 0.01 0.01 0.00 0.00 0.00 0.01 0.03 0.05 0.06 0.05 0.06 0.07 0.07 0.05 0.04 0.04 0.03 0.04 0.04 0.05 0.04 0.04 0.04 0.04 0.04 0.04 0.04
0.01 0.00 0.00 0.01 0.01 0.01 0.01 0.01 0.01 0.01 0.02 0.04 0.02 0.01 0.02 0.01 0.01 0.00 0.00 0.00 0.00 0.00 0.01 0.03 0.04 0.05 0.05 0.05 0.06 0.06 0.05 0.05 0.04 0.04 0.04 0.05 0.05 0.04 0.05 0.05 0.03 0.04 0.04
0.01 0.01 0.01 0.01 0.01 0.01 0.01 0.01 0.01 0.02 0.04 0.04 0.02 0.01 0.02 0.01 0.01 0.01 0.01 0.00 0.00 0.00 0.00 0.02 0.03 0.04 0.04 0.05 0.07 0.08 0.08 0.06 0.06 0.05 0.06 0.05 0.04 0.03 0.04 0.04 0.04 0.04 0.04
0.01 0.01 0.02 0.03 0.02 0.01 0.01 0.01 0.02 0.05 0.05 0.02 0.01 0.01 0.01 0.01 0.01 0.02 0.01 0.01 0.00 0.00 0.00 0.01 0.02 0.03 0.03 0.05 0.06 0.07 0.08 0.10 0.12 0.10 0.07 0.06 0.05 0.04 0.04 0.03 0.03 0.04 0.04
0.01 0.02 0.03 0.03 0.02 0.01 0.02 0.02 0.03 0.03 0.01 0.01 0.01 0.00 0.00 0.01 0.01 0.01 0.01 0.01 0.01 0.01 0.01 0.01 0.02 0.01 0.02 0.03 0.05 0.08 0.09 0.10 0.14 0.12 0.08 0.06 0.04 0.03 0.03 0.02 0.02 0.03 0.03
0.01 0.02 0.03 0.03 0.03 0.02 0.02 0.02 0.02 0.01 0.01 0.01 0.01 0.01 0.01 0.01 0.02 0.02 0.01 0.01 0.01 0.01 0.01 0.02 0.02 0.02 0.02 0.02 0.06 0.10 0.10 0.09 0.10 0.10 0.07 0.05 0.03 0.02 0.02 0.02 0.02 0.02 0.03
0.01 0.01 0.01 0.01 0.02 0.03 0.03 0.03 0.03 0.02 0.02 0.02 0.01 0.01 0.01 0.01 0.01 0.02 0.01 0.01 0.02 0.02 0.02 0.02 0.02 0.03 0.05 0.07 0.08 0.07 0.08 0.07 0.07 0.08 0.06 0.04 0.03 0.02 0.02 0.02 0.02 0.02 0.02
0.00 0.00 0.00 0.01 0.02 0.04 0.03 0.03 0.03 0.03 0.02 0.02 0.02 0.01 0.02 0.02 0.01 0.01 0.02 0.01 0.01 0.02 0.02 0.02 0.02 0.04 0.06 0.07 0.06 0.05 0.05 0.04 0.04 0.04 0.04 0.04 0.04 0.04 0.04 0.04 0.03 0.02 0.01
0.00 0.00 0.01 0.01 0.02 0.03 0.02 0.03 0.02 0.03 0.03 0.02 0.03 0.02 0.02 0.01 0.01 0.01 0.01 0.01 0.01 0.02 0.02 0.02 0.03 0.04 0.05 0.05 0.04 0.03 0.04 0.03 0.02 0.02 0.03 0.04 0.05 0.05 0.05 0.04 0.03 0.02 0.02
0.00 0.01 0.01 0.01 0.01 0.02 0.02 0.02 0.02 0.02 0.03 0.02 0.02 0.02 0.01 0.01 0.01 0.01 0.01 0.01 0.01 0.01 0.02 0.02 0.03 0.04 0.03 0.02 0.02 0.02 0.02 0.02 0.02 0.02 0.03 0.05 0.05 0.04 0.04 0.04 0.04 0.03 0.02
0.01 0.01 0.01 0.01 0.01 0.01 0.01 0.01 0.01 0.02 0.02 0.02 0.02 0.02 0.02 0.02 0.01 0.01 0.01 0.01 0.01 0.01 0.01 0.01 0.01 0.01 0.02 0.01 0.01 0.01 0.01 0.01 0.02 0.01 0.02 0.03 0.03 0.02 0.04 0.04 0.03 0.03 0.02
0.01 0.01 0.01 0.01 0.01 0.02 0.01 0.01 0.01 0.02 0.01 0.01 0.02 0.02 0.02 0.02 0.01 0.01 0.00 0.00 0.01 0.01 0.00 0.00 0.00 0.01 0.01 0.01 0.01 0.03 0.01 0.01 0.00 0.00 0.00 0.01 0.02 0.01 0.01 0.02 0.02 0.02 0.01
0.01 0.01 0.01 0.01 0.01 0.01 0.00 0.01 0.01 0.01 0.01 0.01 0.01 0.01 0.02 0.02 0.02 0.01 0.01 0.00 0.00 0.01 0.01 0.00 0.00 0.00 0.00 0.01 0.01 0.01 0.01 0.00 0.00 0.00 0.00 0.00 0.01 0.01 0.01 0.01 0.02 0.02 0.01
0.01 0.01 0.00 0.00 0.01 0.01 0.00 0.00 0.00 0.01 0.01 0.01 0.01 0.02 0.02 0.01 0.01 0.01 0.01 0.01 0.00 0.01 0.01 0.00 0.00 0.00 0.00 0.00 0.01 0.01 0.01 0.01 0.00 0.00 0.00 0.00 0.01 0.01 0.01 0.02 0.02 0.02 0.02
0.01 0.01 0.00 0.00 0.00 0.01 0.01 0.00 0.00 0.00 0.01 0.01 0.01 0.01 0.01 0.01 0.01 0.01 0.01 0.01 0.01 0.00 0.00 0.00 0.00 0.00 0.00 0.00 0.00 0.00 0.00 0.00 0.01 0.01 0.01 0.01 0.01 0.01 0.01 0.02 0.02 0.02 0.01
0.01 0.00 0.00 0.00 0.00 0.00 0.00 0.00 0.00 0.01 0.01 0.01 0.01 0.01 0.01 0.01 0.01 0.01 0.01 0.01 0.01 0.01 0.00 0.00 0.00 0.01 0.01 0.00 0.01 0.00 0.00 0.00 0.00 0.01 0.01 0.01 0.01 0.01 0.01 0.01 0.01 0.01 0.01
0.01 0.00 0.00 0.00 0.00 0.00 0.00 0.00 0.00 0.00 0.00 0.01 0.01 0.01 0.01 0.01 0.01 0.01 0.01 0.01 0.01 0.01 0.01 0.00 0.01 0.02 0.01 0.00 0.01 0.01 0.00 0.00 0.00 0.01 0.01 0.01 0.01 0.01 0.00 0.01 0.01 0.01 0.02
0.01 0.00 0.00 0.00 0.00 0.00 0.00 0.00 0.00 0.00 0.00 0.00 0.01 0.01 0.01 0.01 0.01 0.01 0.01 0.01 0.01 0.01 0.01 0.00 0.01 0.02 0.02 0.01 0.01 0.01 0.01 0.01 0.01 0.01 0.01 0.02 0.02 0.01 0.00 0.01 0.01 0.01 0.02
0.02 0.01 0.01 0.00 0.00 0.00 0.00 0.00 0.00 0.00 0.00 0.01 0.01 0.01 0.01 0.01 0.01 0.01 0.01 0.01 0.01 0.01 0.01 0.01 0.00 0.00 0.01 0.01 0.01 0.00 0.00 0.00 0.00 0.01 0.01 0.02 0.02 0.01 0.00 0.00 0.00 0.00 0.01
0.03 0.02 0.01 0.01 0.00 0.00 0.00 0.00 0.00 0.00 0.00 0.00 0.00 0.01 0.01 0.01 0.01 0.01 0.01 0.01 0.01 0.01 0.01 0.01 0.00 0.00 0.00 0.00 0.00 0.00 0.01 0.01 0.01 0.00 0.00 0.01 0.01 0.00 0.00 0.00 0.00 0.00 0.00
0.01 0.01 0.01 0.01 0.02 0.02 0.01 0.01 0.00 0.00 0.00 0.00 0.00 0.01 0.01 0.01 0.01 0.01 0.01 0.01 0.01 0.01 0.02 0.01 0.01 0.00 0.00 0.00 0.01 0.01 0.01 0.01 0.01 0.01 0.01 0.01 0.01 0.01 0.01 0.00 0.00 0.00 0.00
0.02 0.02 0.02 0.02 0.03 0.03 0.03 0.02 0.02 0.01 0.01 0.00 0.00 0.01 0.01 0.01 0.01 0.01 0.01 0.01 0.01 0.01 0.01 0.01 0.01 0.01 0.01 0.01 0.01 0.01 0.01 0.00 0.00 0.00 0.01 0.01 0.01 0.01 0.01 0.01 0.00 0.00 0.00
0.03 0.03 0.02 0.02 0.02 0.03 0.03 0.03 0.02 0.01 0.01 0.00 0.00 0.00 0.00 0.00 0.00 0.01 0.01 0.01 0.00 0.01 0.01 0.01 0.01 0.01 0.01 0.01 0.00 0.00 0.00 0.00 0.00 0.00 0.01 0.01 0.01 0.01 0.01 0.01 0.01 0.01 0.01
0.02 0.03 0.03 0.03 0.02 0.02 0.02 0.02 0.01 0.01 0.01 0.00 0.00 0.00 0.00 0.00 0.00 0.01 0.01 0.01 0.00 0.00 0.00 0.01 0.01 0.01 0.01 0.01 0.00 0.00 0.00 0.00 0.00 0.00 0.00 0.01 0.01 0.01 0.01 0.01 0.01 0.01 0.01

GEFSMA_prec_meanprec_252.txt.gz
QPF
0.01 0.01 0.01 0.02 0.02 0.02 0.01 0.01 0.01 0.01 0.01 0.01 0.01 0.01 0.00 0.00 0.01 0.03 0.05 0.07 0.09 0.12 0.14 0.14 0.10 0.07 0.05 0.05 0.05 0.04 0.03 0.03 0.05 0.06 0.06 0.05 0.04 0.05 0.06 0.05 0.07 0.10 0.14
0.01 0.01 0.01 0.01 0.02 0.01 0.01 0.02 0.02 0.01 0.01 0.01 0.00 0.01 0.00 0.00 0.01 0.02 0.02 0.03 0.05 0.09 0.11 0.13 0.10 0.07 0.06 0.07 0.05 0.05 0.04 0.03 0.03 0.04 0.06 0.05 0.05 0.05 0.04 0.04 0.05 0.09 0.17
0.01 0.01 0.01 0.01 0.01 0.01 0.01 0.02 0.01 0.00 0.00 0.00 0.01 0.01 0.01 0.02 0.02 0.01 0.01 0.01 0.01 0.04 0.06 0.08 0.09 0.07 0.06 0.09 0.08 0.07 0.05 0.04 0.03 0.04 0.07 0.06 0.04 0.04 0.04 0.05 0.05 0.07 0.13
0.01 0.01 0.01 0.01 0.01 0.01 0.01 0.01 0.01 0.01 0.00 0.01 0.01 0.01 0.02 0.03 0.02 0.01 0.01 0.01 0.01 0.01 0.02 0.04 0.06 0.07 0.06 0.06 0.06 0.07 0.05 0.04 0.04 0.06 0.06 0.06 0.06 0.06 0.07 0.07 0.07 0.07 0.09
0.00 0.01 0.01 0.01 0.01 0.01 0.01 0.02 0.01 0.01 0.01 0.02 0.02 0.02 0.03 0.03 0.01 0.01 0.00 0.00 0.00 0.00 0.01 0.02 0.04 0.06 0.07 0.06 0.06 0.06 0.06 0.05 0.04 0.06 0.08 0.08 0.07 0.08 0.06 0.06 0.06 0.05 0.07
0.01 0.01 0.01 0.01 0.02 0.01 0.01 0.01 0.01 0.01 0.02 0.03 0.03 0.04 0.03 0.01 0.00 0.00 0.00 0.00 0.01 0.01 0.01 0.02 0.02 0.04 0.06 0.06 0.07 0.08 0.10 0.08 0.08 0.08 0.07 0.06 0.06 0.07 0.06 0.05 0.05 0.05 0.06
0.00 0.01 0.01 0.01 0.01 0.02 0.01 0.01 0.02 0.03 0.03 0.03 0.04 0.03 0.02 0.01 0.01 0.00 0.00 0.00 0.00 0.01 0.02 0.02 0.02 0.02 0.03 0.04 0.06 0.08 0.10 0.13 0.14 0.12 0.09 0.09 0.07 0.06 0.05 0.04 0.04 0.04 0.04
0.00 0.00 0.00 0.01 0.01 0.01 0.01 0.01 0.02 0.02 0.03 0.02 0.01 0.01 0.01 0.01 0.01 0.01 0.00 0.00 0.00 0.01 0.01 0.01 0.02 0.02 0.01 0.01 0.03 0.06 0.10 0.12 0.14 0.14 0.12 0.13 0.10 0.09 0.08 0.06 0.05 0.05 0.04
0.00 0.00 0.00 0.00 0.01 0.01 0.01 0.01 0.02 0.01 0.01 0.01 0.01 0.01 0.01 0.01 0.02 0.01 0.00 0.01 0.01 0.01 0.01 0.01 0.02 0.02 0.01 0.02 0.03 0.06 0.09 0.12 0.12 0.12 0.10 0.10 0.10 0.10 0.07 0.05 0.04 0.04 0.04
0.00 0.00 0.00 0.01 0.01 0.02 0.01 0.01 0.01 0.02 0.01 0.01 0.01 0.01 0.01 0.01 0.01 0.02 0.01 0.00 0.00 0.01 0.01 0.02 0.03 0.04 0.03 0.04 0.07 0.09 0.08 0.09 0.09 0.09 0.09 0.08 0.07 0.06 0.06 0.05 0.03 0.02 0.02
0.00 0.00 0.00 0.00 0.01 0.01 0.01 0.01 0.01 0.01 0.01 0.01 0.01 0.02 0.02 0.02 0.01 0.01 0.01 0.00 0.00 0.01 0.01 0.01 0.02 0.03 0.04 0.06 0.09 0.08 0.07 0.06 0.06 0.07 0.07 0.07 0.08 0.08 0.06 0.05 0.04 0.04 0.03
0.00 0.00 0.01 0.01 0.01 0.01 0.01 0.02 0.02 0.02 0.02 0.02 0.02 0.03 0.03 0.02 0.01 0.01 0.01 0.01 0.00 0.00 0.00 0.01 0.01 0.02 0.02 0.03 0.05 0.05 0.05 0.03 0.03 0.03 0.04 0.05 0.07 0.07 0.05 0.04 0.04 0.04 0.04
0.01 0.01 0.01 0.01 0.01 0.01 0.02 0.02 0.03 0.03 0.03 0.04 0.04 0.04 0.03 0.02 0.02 0.02 0.02 0.01 0.01 0.00 0.00 0.00 0.00 0.01 0.01 0.01 0.02 0.02 0.02 0.02 0.02 0.02 0.04 0.06 0.06 0.05 0.04 0.04 0.04 0.03 0.03
0.01 0.01 0.01 0.01 0.01 0.01 0.01 0.01 0.01 0.02 0.03 0.03 0.03 0.04 0.04 0.03 0.03 0.04 0.03 0.02 0.01 0.01 0.01 0.00 0.00 0.00 0.00 0.00 0.01 0.01 0.01 0.02 0.02 0.02 0.01 0.02 0.03 0.03 0.04 0.06 0.07 0.05 0.04
0.01 0.01 0.01 0.01 0.01 0.01 0.01 0.01 0.01 0.01 0.01 0.01 0.01 0.01 0.02 0.03 0.04 0.05 0.05 0.05 0.03 0.02 0.01 0.01 0.00 0.00 0.00 0.00 0.00 0.00 0.00 0.01 0.01 0.01 0.02 0.01 0.00 0.01 0.02 0.03 0.05 0.03 0.03
0.03 0.02 0.01 0.01 0.01 0.01 0.01 0.01 0.01 0.00 0.00 0.00 0.01 0.01 0.01 0.02 0.01 0.02 0.03 0.04 0.04 0.03 0.01 0.01 0.00 0.00 0.00 0.00 0.00 0.00 0.00 0.01 0.01 0.01 0.01 0.01 0.01 0.00 0.00 0.01 0.02 0.02 0.02
0.04 0.03 0.03 0.03 0.02 0.02 0.01 0.01 0.01 0.01 0.00 0.00 0.00 0.01 0.01 0.02 0.02 0.03 0.04 0.04 0.04 0.04 0.02 0.01 0.00 0.00 0.00 0.00 0.00 0.00 0.00 0.00 0.01 0.01 0.01 0.01 0.00 0.00 0.00 0.01 0.01 0.02 0.02
0.04 0.04 0.03 0.02 0.02 0.02 0.02 0.01 0.01 0.01 0.01 0.00 0.00 0.00 0.01 0.01 0.01 0.01 0.02 0.02 0.03 0.03 0.02 0.00 0.00 0.01 0.01 0.01 0.00 0.00 0.00 0.00 0.00 0.01 0.01 0.01 0.01 0.01 0.01 0.01 0.01 0.01 0.01
0.03 0.03 0.03 0.03 0.02 0.02 0.01 0.01 0.01 0.01 0.01 0.00 0.00 0.01 0.01 0.02 0.02 0.03 0.03 0.03 0.03 0.03 0.03 0.01 0.00 0.01 0.02 0.01 0.01 0.01 0.00 0.00 0.00 0.01 0.01 0.01 0.02 0.01 0.01 0.02 0.01 0.01 0.01
0.03 0.03 0.03 0.03 0.02 0.02 0.01 0.01 0.00 0.01 0.00 0.00 0.00 0.00 0.01 0.02 0.03 0.04 0.04 0.04 0.03 0.03 0.03 0.02 0.01 0.01 0.02 0.02 0.02 0.01 0.01 0.01 0.01 0.02 0.04 0.03 0.03 0.03 0.03 0.02 0.01 0.01 0.01
0.04 0.04 0.04 0.03 0.02 0.01 0.01 0.01 0.00 0.00 0.00 0.00 0.00 0.00 0.00 0.00 0.01 0.02 0.02 0.02 0.02 0.02 0.02 0.03 0.01 0.01 0.00 0.01 0.01 0.00 0.00 0.00 0.00 0.01 0.02 0.03 0.03 0.02 0.01 0.00 0.00 0.00 0.00
0.05 0.04 0.04 0.04 0.03 0.02 0.02 0.01 0.01 0.00 0.00 0.00 0.00 0.00 0.00 0.00 0.00 0.00 0.00 0.01 0.01 0.01 0.01 0.02 0.02 0.01 0.00 0.00 0.00 0.00 0.00 0.00 0.01 0.00 0.01 0.01 0.01 0.01 0.00 0.00 0.00 0.00 0.00
0.04 0.04 0.04 0.04 0.03 0.03 0.03 0.02 0.01 0.01 0.00 0.00 0.00 0.00 0.01 0.01 0.01 0.00 0.00 0.01 0.01 0.01 0.01 0.01 0.02 0.02 0.01 0.00 0.00 0.00 0.00 0.00 0.01 0.01 0.01 0.01 0.00 0.00 0.00 0.00 0.00 0.00 0.00
0.06 0.05 0.05 0.05 0.04 0.05 0.04 0.03 0.02 0.02 0.01 0.01 0.01 0.01 0.01 0.01 0.01 0.01 0.01 0.01 0.01 0.01 0.01 0.01 0.01 0.02 0.02 0.01 0.01 0.01 0.01 0.01 0.01 0.01 0.01 0.01 0.00 0.00 0.00 0.00 0.00 0.00 0.00
0.06 0.07 0.05 0.05 0.04 0.04 0.05 0.04 0.03 0.03 0.03 0.02 0.01 0.01 0.02 0.01 0.01 0.01 0.01 0.00 0.01 0.01 0.01 0.01 0.01 0.01 0.02 0.01 0.01 0.01 0.01 0.01 0.01 0.00 0.00 0.00 0.00 0.00 0.00 0.00 0.00 0.00 0.00
0.05 0.04 0.04 0.04 0.02 0.02 0.03 0.02 0.02 0.02 0.02 0.02 0.01 0.01 0.02 0.02 0.01 0.01 0.01 0.01 0.01 0.01 0.01 0.01 0.01 0.01 0.01 0.01 0.01 0.00 0.00 0.00 0.00 0.00 0.00 0.00 0.00 0.00 0.00 0.00 0.00 0.00 0.00

GEFSMA_prec_meanprec_258.txt.gz
QPF
0.01 0.01 0.01 0.02 0.01 0.01 0.01 0.01 0.01 0.01 0.01 0.01 0.01 0.00 0.00 0.01 0.01 0.03 0.04 0.05 0.06 0.12 0.14 0.13 0.13 0.11 0.09 0.07 0.05 0.04 0.04 0.04 0.04 0.06 0.06 0.05 0.09 0.14 0.16 0.17 0.13 0.09 0.07
0.01 0.01 0.01 0.01 0.01 0.01 0.00 0.00 0.01 0.01 0.01 0.01 0.00 0.00 0.00 0.00 0.00 0.01 0.02 0.03 0.05 0.09 0.12 0.15 0.13 0.09 0.06 0.06 0.05 0.04 0.04 0.04 0.04 0.05 0.06 0.07 0.09 0.11 0.12 0.13 0.12 0.07 0.05
0.01 0.01 0.01 0.01 0.01 0.01 0.00 0.00 0.00 0.00 0.00 0.01 0.01 0.00 0.01 0.01 0.01 0.01 0.02 0.03 0.04 0.04 0.05 0.08 0.10 0.09 0.08 0.08 0.06 0.05 0.05 0.05 0.04 0.04 0.05 0.08 0.08 0.09 0.08 0.08 0.07 0.06 0.06
0.01 0.01 0.01 0.00 0.01 0.01 0.00 0.00 0.00 0.00 0.00 0.01 0.01 0.02 0.02 0.03 0.02 0.02 0.02 0.02 0.02 0.02 0.02 0.03 0.04 0.06 0.07 0.08 0.06 0.05 0.06 0.05 0.04 0.03 0.04 0.05 0.06 0.07 0.07 0.07 0.06 0.06 0.07
0.01 0.01 0.01 0.01 0.01 0.01 0.00 0.00 0.00 0.01 0.00 0.01 0.02 0.04 0.04 0.04 0.02 0.02 0.01 0.01 0.01 0.01 0.02 0.01 0.02 0.04 0.05 0.06 0.07 0.07 0.06 0.05 0.04 0.04 0.04 0.05 0.06 0.07 0.06 0.05 0.05 0.05 0.05
0.00 0.01 0.01 0.01 0.00 0.01 0.01 0.01 0.00 0.00 0.00 0.02 0.05 0.05 0.05 0.04 0.02 0.01 0.00 0.00 0.01 0.01 0.01 0.01 0.01 0.02 0.04 0.05 0.06 0.07 0.08 0.06 0.05 0.06 0.05 0.05 0.06 0.07 0.06 0.06 0.05 0.05 0.04
0.00 0.01 0.01 0.01 0.01 0.01 0.01 0.01 0.01 0.00 0.01 0.03 0.06 0.04 0.03 0.02 0.01 0.01 0.00 0.00 0.01 0.01 0.01 0.01 0.02 0.02 0.02 0.03 0.05 0.09 0.10 0.07 0.07 0.07 0.07 0.08 0.09 0.07 0.06 0.06 0.05 0.04 0.03
0.00 0.00 0.01 0.01 0.01 0.01 0.01 0.01 0.01 0.01 0.02 0.02 0.03 0.03 0.02 0.02 0.02 0.01 0.00 0.01 0.01 0.01 0.01 0.01 0.01 0.01 0.01 0.02 0.02 0.04 0.05 0.08 0.10 0.09 0.08 0.10 0.09 0.08 0.07 0.06 0.06 0.04 0.04
0.00 0.00 0.00 0.01 0.01 0.01 0.01 0.01 0.01 0.02 0.02 0.01 0.01 0.03 0.04 0.03 0.02 0.02 0.01 0.01 0.01 0.01 0.01 0.02 0.02 0.01 0.01 0.01 0.02 0.03 0.03 0.07 0.13 0.12 0.10 0.12 0.11 0.09 0.08 0.10 0.10 0.09 0.06
0.01 0.00 0.00 0.01 0.01 0.01 0.02 0.01 0.01 0.01 0.02 0.02 0.01 0.01 0.02 0.02 0.02 0.02 0.01 0.01 0.01 0.01 0.01 0.01 0.02 0.01 0.01 0.01 0.02 0.02 0.03 0.06 0.10 0.10 0.12 0.14 0.10 0.07 0.06 0.08 0.12 0.13 0.11
0.01 0.01 0.01 0.01 0.01 0.01 0.02 0.01 0.01 0.01 0.02 0.02 0.02 0.01 0.01 0.01 0.01 0.01 0.01 0.01 0.01 0.01 0.01 0.01 0.01 0.01 0.02 0.02 0.03 0.03 0.03 0.05 0.07 0.08 0.08 0.08 0.07 0.06 0.05 0.05 0.06 0.08 0.08
0.02 0.02 0.01 0.01 0.01 0.01 0.01 0.01 0.02 0.02 0.02 0.02 0.02 0.02 0.02 0.02 0.01 0.01 0.02 0.01 0.01 0.01 0.00 0.01 0.01 0.02 0.02 0.04 0.04 0.03 0.04 0.04 0.06 0.07 0.05 0.04 0.03 0.03 0.03 0.04 0.04 0.04 0.04
0.02 0.03 0.03 0.02 0.02 0.01 0.01 0.02 0.02 0.03 0.04 0.04 0.04 0.03 0.02 0.02 0.02 0.02 0.02 0.02 0.01 0.01 0.01 0.01 0.01 0.02 0.03 0.03 0.03 0.03 0.04 0.03 0.04 0.04 0.05 0.03 0.02 0.02 0.03 0.04 0.04 0.04 0.03
0.03 0.03 0.02 0.02 0.02 0.02 0.02 0.01 0.02 0.02 0.03 0.03 0.04 0.04 0.04 0.03 0.02 0.02 0.02 0.02 0.02 0.01 0.01 0.01 0.01 0.02 0.02 0.02 0.02 0.02 0.02 0.02 0.01 0.01 0.02 0.02 0.02 0.01 0.03 0.04 0.03 0.03 0.03
0.02 0.02 0.02 0.02 0.02 0.01 0.02 0.02 0.02 0.02 0.02 0.02 0.01 0.01 0.02 0.02 0.02 0.02 0.02 0.02 0.03 0.03 0.02 0.01 0.01 0.02 0.02 0.02 0.02 0.02 0.01 0.01 0.00 0.00 0.00 0.01 0.01 0.01 0.03 0.05 0.05 0.04 0.03
0.05 0.04 0.04 0.03 0.03 0.02 0.02 0.02 0.02 0.01 0.02 0.03 0.02 0.01 0.01 0.01 0.01 0.01 0.01 0.02 0.02 0.02 0.02 0.01 0.01 0.01 0.01 0.01 0.02 0.01 0.01 0.00 0.00 0.00 0.00 0.01 0.01 0.01 0.01 0.02 0.03 0.03 0.02
0.04 0.05 0.05 0.04 0.03 0.03 0.03 0.03 0.02 0.02 0.01 0.02 0.02 0.01 0.01 0.01 0.01 0.01 0.01 0.02 0.02 0.03 0.02 0.01 0.01 0.01 0.01 0.01 0.01 0.01 0.00 0.00 0.00 0.01 0.01 0.01 0.01 0.01 0.02 0.02 0.01 0.01 0.01
0.03 0.03 0.03 0.03 0.03 0.03 0.03 0.03 0.03 0.02 0.02 0.02 0.02 0.01 0.01 0.01 0.02 0.01 0.01 0.01 0.01 0.02 0.03 0.02 0.02 0.01 0.02 0.01 0.01 0.01 0.00 0.00 0.01 0.01 0.01 0.01 0.01 0.01 0.01 0.01 0.01 0.02 0.01
0.01 0.01 0.02 0.02 0.02 0.03 0.03 0.02 0.02 0.02 0.02 0.01 0.01 0.01 0.01 0.01 0.01 0.01 0.01 0.01 0.01 0.02 0.02 0.02 0.01 0.01 0.01 0.01 0.00 0.00 0.00 0.00 0.01 0.02 0.01 0.01 0.01 0.01 0.01 0.01 0.00 0.01 0.01
0.01 0.01 0.01 0.01 0.01 0.02 0.02 0.02 0.02 0.02 0.02 0.01 0.01 0.01 0.01 0.01 0.01 0.01 0.01 0.01 0.01 0.01 0.01 0.01 0.01 0.01 0.01 0.01 0.01 0.01 0.01 0.00 0.00 0.01 0.01 0.01 0.01 0.01 0.01 0.01 0.01 0.01 0.01
0.01 0.01 0.01 0.01 0.01 0.02 0.02 0.03 0.02 0.02 0.02 0.01 0.01 0.01 0.01 0.01 0.01 0.01 0.01 0.01 0.01 0.01 0.01 0.01 0.01 0.01 0.01 0.01 0.01 0.02 0.01 0.00 0.00 0.00 0.01 0.01 0.01 0.01 0.01 0.01 0.01 0.01 0.00
0.02 0.01 0.01 0.01 0.01 0.01 0.02 0.02 0.02 0.02 0.02 0.01 0.01 0.01 0.01 0.01 0.02 0.01 0.01 0.01 0.01 0.01 0.01 0.01 0.01 0.01 0.01 0.01 0.01 0.02 0.02 0.01 0.01 0.00 0.00 0.01 0.01 0.01 0.01 0.01 0.01 0.01 0.00
0.02 0.02 0.03 0.02 0.02 0.02 0.02 0.02 0.02 0.02 0.02 0.01 0.01 0.01 0.01 0.01 0.01 0.01 0.01 0.00 0.00 0.01 0.01 0.01 0.01 0.01 0.01 0.01 0.02 0.02 0.02 0.01 0.00 0.00 0.00 0.00 0.01 0.01 0.01 0.01 0.01 0.00 0.00
0.03 0.03 0.03 0.03 0.03 0.03 0.04 0.04 0.04 0.04 0.03 0.02 0.01 0.01 0.01 0.01 0.02 0.02 0.01 0.01 0.01 0.01 0.01 0.01 0.01 0.01 0.01 0.02 0.02 0.02 0.02 0.01 0.00 0.00 0.00 0.00 0.00 0.00 0.00 0.00 0.00 0.00 0.00
0.04 0.05 0.04 0.03 0.03 0.04 0.05 0.05 0.04 0.04 0.04 0.04 0.03 0.02 0.02 0.02 0.02 0.02 0.01 0.01 0.01 0.01 0.01 0.01 0.01 0.01 0.01 0.02 0.02 0.02 0.01 0.01 0.01 0.00 0.00 0.00 0.00 0.00 0.00 0.00 0.00 0.00 0.00
0.03 0.04 0.04 0.03 0.03 0.03 0.04 0.03 0.03 0.03 0.03 0.03 0.03 0.03 0.03 0.03 0.03 0.02 0.02 0.01 0.01 0.01 0.00 0.00 0.00 0.01 0.01 0.01 0.02 0.02 0.02 0.02 0.01 0.01 0.00 0.00 0.00 0.00 0.00 0.00 0.00 0.00 0.00

GEFSMA_prec_meanprec_264.txt.gz
QPF
0.02 0.03 0.03 0.03 0.02 0.02 0.01 0.02 0.02 0.02 0.02 0.02 0.02 0.02 0.02 0.02 0.02 0.02 0.02 0.03 0.06 0.08 0.11 0.09 0.07 0.06 0.06 0.04 0.03 0.03 0.02 0.02 0.02 0.02 0.02 0.03 0.07 0.10 0.11 0.13 0.08 0.07 0.07
0.02 0.03 0.03 0.02 0.02 0.02 0.02 0.02 0.02 0.02 0.02 0.01 0.01 0.01 0.01 0.01 0.01 0.01 0.02 0.04 0.06 0.06 0.09 0.09 0.06 0.05 0.05 0.05 0.03 0.02 0.02 0.02 0.03 0.03 0.04 0.04 0.08 0.10 0.16 0.17 0.10 0.07 0.06
0.01 0.01 0.01 0.01 0.01 0.01 0.01 0.01 0.01 0.01 0.02 0.01 0.01 0.00 0.00 0.01 0.01 0.01 0.01 0.03 0.04 0.03 0.05 0.05 0.04 0.03 0.04 0.07 0.05 0.04 0.03 0.02 0.03 0.03 0.05 0.07 0.10 0.08 0.15 0.18 0.11 0.07 0.07
0.00 0.01 0.01 0.01 0.01 0.01 0.01 0.01 0.01 0.01 0.01 0.01 0.01 0.01 0.00 0.01 0.01 0.01 0.00 0.01 0.02 0.02 0.02 0.02 0.02 0.02 0.03 0.06 0.06 0.05 0.03 0.02 0.03 0.03 0.05 0.08 0.09 0.08 0.12 0.14 0.08 0.06 0.07
0.00 0.01 0.01 0.01 0.01 0.00 0.01 0.01 0.01 0.01 0.01 0.01 0.01 0.01 0.01 0.02 0.01 0.01 0.01 0.01 0.01 0.02 0.01 0.01 0.01 0.02 0.03 0.04 0.06 0.06 0.05 0.04 0.04 0.04 0.05 0.07 0.08 0.08 0.10 0.12 0.08 0.05 0.05
0.01 0.01 0.01 0.01 0.01 0.01 0.01 0.02 0.01 0.01 0.01 0.01 0.01 0.01 0.01 0.03 0.02 0.01 0.01 0.01 0.02 0.02 0.02 0.02 0.02 0.02 0.03 0.04 0.06 0.06 0.06 0.05 0.05 0.04 0.05 0.07 0.08 0.07 0.07 0.08 0.06 0.04 0.04
0.01 0.01 0.01 0.01 0.01 0.01 0.02 0.02 0.02 0.01 0.01 0.01 0.01 0.02 0.02 0.02 0.01 0.01 0.01 0.02 0.02 0.02 0.03 0.03 0.03 0.02 0.01 0.02 0.03 0.06 0.07 0.04 0.04 0.05 0.05 0.07 0.08 0.07 0.06 0.06 0.06 0.05 0.05
0.02 0.01 0.01 0.01 0.02 0.02 0.02 0.02 0.01 0.02 0.02 0.02 0.03 0.04 0.04 0.03 0.02 0.01 0.01 0.02 0.02 0.02 0.03 0.03 0.03 0.03 0.02 0.01 0.02 0.03 0.05 0.06 0.06 0.07 0.08 0.08 0.08 0.07 0.06 0.06 0.06 0.06 0.06
0.01 0.01 0.00 0.01 0.01 0.02 0.02 0.02 0.02 0.02 0.03 0.02 0.04 0.06 0.07 0.04 0.04 0.02 0.01 0.02 0.02 0.03 0.03 0.03 0.03 0.03 0.02 0.02 0.02 0.01 0.02 0.05 0.07 0.08 0.08 0.06 0.06 0.06 0.05 0.05 0.05 0.06 0.05
0.01 0.01 0.01 0.01 0.01 0.02 0.02 0.01 0.02 0.03 0.04 0.03 0.03 0.03 0.04 0.03 0.03 0.03 0.02 0.02 0.04 0.04 0.04 0.03 0.03 0.03 0.02 0.02 0.01 0.01 0.01 0.04 0.07 0.10 0.09 0.06 0.04 0.03 0.03 0.04 0.05 0.06 0.08
0.01 0.01 0.01 0.01 0.01 0.02 0.02 0.01 0.02 0.02 0.03 0.03 0.03 0.03 0.03 0.02 0.02 0.02 0.02 0.02 0.02 0.02 0.03 0.03 0.02 0.02 0.02 0.02 0.01 0.01 0.01 0.03 0.06 0.08 0.08 0.06 0.05 0.03 0.03 0.04 0.05 0.06 0.08
0.03 0.02 0.01 0.02 0.02 0.02 0.02 0.01 0.02 0.02 0.03 0.04 0.04 0.03 0.04 0.03 0.02 0.02 0.01 0.01 0.02 0.03 0.03 0.03 0.02 0.02 0.02 0.02 0.01 0.01 0.02 0.05 0.06 0.05 0.05 0.05 0.05 0.04 0.04 0.04 0.04 0.05 0.05
0.02 0.03 0.02 0.02 0.03 0.03 0.04 0.04 0.03 0.03 0.03 0.03 0.04 0.04 0.04 0.04 0.03 0.02 0.02 0.02 0.02 0.03 0.04 0.04 0.04 0.03 0.02 0.02 0.02 0.03 0.04 0.04 0.04 0.03 0.03 0.02 0.02 0.02 0.03 0.03 0.04 0.05 0.05
0.01 0.02 0.02 0.02 0.03 0.03 0.02 0.02 0.03 0.03 0.02 0.02 0.02 0.02 0.03 0.03 0.02 0.02 0.02 0.02 0.02 0.02 0.03 0.04 0.05 0.04 0.03 0.02 0.03 0.04 0.04 0.04 0.03 0.02 0.01 0.01 0.01 0.01 0.01 0.02 0.03 0.03 0.03
0.01 0.01 0.01 0.02 0.03 0.02 0.02 0.02 0.03 0.02 0.01 0.01 0.01 0.01 0.01 0.02 0.01 0.02 0.02 0.02 0.02 0.03 0.03 0.03 0.04 0.04 0.04 0.03 0.03 0.03 0.04 0.03 0.02 0.01 0.01 0.01 0.00 0.01 0.02 0.02 0.02 0.01 0.01
0.01 0.01 0.01 0.02 0.02 0.02 0.02 0.02 0.02 0.02 0.01 0.02 0.02 0.02 0.01 0.01 0.01 0.01 0.01 0.02 0.02 0.03 0.03 0.03 0.04 0.04 0.03 0.03 0.04 0.03 0.03 0.02 0.01 0.01 0.01 0.01 0.01 0.01 0.01 0.02 0.02 0.01 0.01
0.01 0.01 0.01 0.02 0.02 0.01 0.02 0.02 0.01 0.02 0.01 0.02 0.02 0.01 0.01 0.02 0.02 0.02 0.02 0.02 0.02 0.02 0.02 0.02 0.03 0.03 0.02 0.01 0.01 0.01 0.01 0.01 0.01 0.01 0.00 0.00 0.01 0.01 0.01 0.01 0.01 0.01 0.00
0.01 0.01 0.01 0.01 0.01 0.01 0.01 0.01 0.01 0.01 0.01 0.01 0.01 0.01 0.01 0.02 0.02 0.02 0.03 0.02 0.02 0.01 0.01 0.02 0.02 0.03 0.02 0.01 0.01 0.00 0.00 0.00 0.01 0.01 0.01 0.00 0.00 0.01 0.01 0.01 0.01 0.01 0.00
0.01 0.01 0.01 0.01 0.01 0.01 0.01 0.01 0.01 0.00 0.00 0.01 0.01 0.01 0.01 0.01 0.01 0.02 0.02 0.02 0.01 0.01 0.01 0.01 0.01 0.02 0.01 0.01 0.00 0.00 0.00 0.00 0.00 0.01 0.01 0.01 0.01 0.01 0.01 0.01 0.01 0.01 0.01
0.00 0.00 0.01 0.01 0.01 0.01 0.01 0.01 0.01 0.01 0.01 0.01 0.01 0.01 0.01 0.01 0.01 0.01 0.01 0.01 0.01 0.01 0.01 0.01 0.01 0.02 0.01 0.01 0.00 0.00 0.00 0.00 0.00 0.01 0.01 0.00 0.01 0.01 0.01 0.01 0.01 0.01 0.02
0.02 0.01 0.01 0.01 0.01 0.01 0.02 0.02 0.02 0.01 0.01 0.01 0.01 0.01 0.01 0.01 0.01 0.01 0.01 0.01 0.01 0.01 0.01 0.01 0.01 0.01 0.01 0.00 0.00 0.00 0.00 0.00 0.00 0.01 0.01 0.00 0.00 0.00 0.00 0.01 0.01 0.01 0.02
0.02 0.02 0.02 0.02 0.02 0.02 0.02 0.03 0.03 0.02 0.01 0.01 0.01 0.01 0.01 0.01 0.01 0.01 0.01 0.01 0.01 0.01 0.01 0.01 0.01 0.01 0.01 0.01 0.00 0.00 0.00 0.01 0.01 0.01 0.01 0.00 0.00 0.00 0.00 0.00 0.00 0.01 0.01
0.01 0.01 0.01 0.02 0.02 0.02 0.03 0.03 0.04 0.04 0.03 0.02 0.02 0.02 0.02 0.02 0.01 0.01 0.01 0.01 0.01 0.01 0.01 0.01 0.01 0.01 0.01 0.01 0.01 0.01 0.01 0.01 0.01 0.01 0.01 0.01 0.00 0.00 0.00 0.01 0.01 0.01 0.01
0.01 0.01 0.01 0.01 0.01 0.02 0.02 0.03 0.03 0.03 0.03 0.03 0.02 0.02 0.02 0.02 0.01 0.01 0.01 0.01 0.01 0.01 0.01 0.01 0.01 0.02 0.02 0.02 0.02 0.02 0.02 0.01 0.01 0.01 0.01 0.01 0.00 0.00 0.00 0.01 0.02 0.01 0.01
0.02 0.02 0.01 0.01 0.01 0.01 0.01 0.02 0.03 0.02 0.02 0.03 0.03 0.03 0.03 0.02 0.02 0.03 0.02 0.02 0.01 0.01 0.01 0.01 0.01 0.01 0.01 0.01 0.01 0.01 0.01 0.01 0.01 0.01 0.01 0.01 0.00 0.00 0.00 0.00 0.01 0.02 0.02
0.01 0.01 0.01 0.01 0.01 0.01 0.01 0.01 0.01 0.01 0.02 0.02 0.02 0.02 0.03 0.03 0.04 0.04 0.03 0.02 0.01 0.01 0.01 0.01 0.01 0.01 0.00 0.00 0.01 0.01 0.01 0.01 0.01 0.01 0.02 0.01 0.00 0.00 0.00 0.00 0.01 0.01 0.01

GEFSMA_prec_meanprec_270.txt.gz
QPF
0.01 0.01 0.01 0.01 0.01 0.01 0.01 0.01 0.00 0.01 0.01 0.01 0.02 0.02 0.02 0.03 0.02 0.01 0.01 0.02 0.05 0.05 0.07 0.06 0.04 0.04 0.04 0.05 0.04 0.03 0.02 0.02 0.03 0.03 0.04 0.04 0.03 0.04 0.06 0.08 0.08 0.08 0.07
0.01 0.01 0.01 0.01 0.01 0.01 0.01 0.00 0.00 0.00 0.01 0.02 0.02 0.02 0.02 0.03 0.03 0.02 0.01 0.02 0.04 0.05 0.08 0.07 0.07 0.06 0.05 0.05 0.04 0.04 0.03 0.03 0.03 0.03 0.05 0.05 0.05 0.07 0.10 0.10 0.08 0.09 0.08
0.01 0.01 0.01 0.01 0.02 0.02 0.01 0.01 0.01 0.01 0.01 0.02 0.03 0.02 0.01 0.02 0.02 0.02 0.03 0.02 0.03 0.04 0.06 0.07 0.07 0.05 0.04 0.04 0.04 0.04 0.04 0.04 0.04 0.04 0.05 0.04 0.04 0.05 0.08 0.08 0.05 0.06 0.07
0.01 0.02 0.02 0.03 0.04 0.03 0.01 0.01 0.01 0.00 0.01 0.02 0.02 0.03 0.02 0.01 0.01 0.01 0.02 0.02 0.02 0.02 0.02 0.04 0.05 0.04 0.03 0.04 0.06 0.07 0.05 0.05 0.05 0.05 0.04 0.03 0.03 0.03 0.05 0.07 0.06 0.06 0.07
0.01 0.01 0.02 0.02 0.02 0.01 0.01 0.00 0.00 0.01 0.01 0.02 0.02 0.02 0.02 0.02 0.02 0.02 0.01 0.01 0.01 0.01 0.01 0.01 0.02 0.03 0.04 0.05 0.06 0.07 0.07 0.07 0.06 0.05 0.05 0.05 0.05 0.04 0.05 0.06 0.06 0.06 0.06
0.00 0.00 0.01 0.01 0.01 0.01 0.01 0.01 0.00 0.01 0.01 0.02 0.02 0.01 0.01 0.01 0.01 0.01 0.01 0.01 0.01 0.01 0.01 0.01 0.01 0.01 0.02 0.04 0.06 0.06 0.07 0.07 0.06 0.05 0.05 0.05 0.06 0.06 0.07 0.06 0.05 0.05 0.05
0.01 0.00 0.00 0.00 0.00 0.00 0.00 0.01 0.01 0.01 0.01 0.02 0.02 0.02 0.02 0.01 0.00 0.01 0.01 0.01 0.01 0.02 0.02 0.02 0.02 0.01 0.01 0.02 0.03 0.06 0.09 0.08 0.06 0.06 0.06 0.07 0.08 0.08 0.10 0.08 0.05 0.04 0.03
0.01 0.00 0.00 0.00 0.00 0.00 0.00 0.01 0.01 0.01 0.01 0.01 0.01 0.02 0.02 0.01 0.01 0.01 0.01 0.01 0.01 0.02 0.02 0.02 0.01 0.01 0.01 0.01 0.01 0.04 0.07 0.09 0.07 0.06 0.06 0.06 0.06 0.07 0.09 0.08 0.05 0.03 0.02
0.01 0.01 0.01 0.00 0.01 0.00 0.00 0.01 0.01 0.01 0.01 0.01 0.01 0.02 0.02 0.01 0.01 0.01 0.02 0.02 0.02 0.02 0.02 0.02 0.01 0.01 0.01 0.01 0.00 0.02 0.03 0.08 0.07 0.06 0.06 0.05 0.05 0.05 0.07 0.07 0.05 0.04 0.03
0.02 0.01 0.01 0.01 0.01 0.01 0.00 0.01 0.01 0.01 0.00 0.00 0.01 0.02 0.02 0.01 0.01 0.02 0.02 0.02 0.02 0.03 0.03 0.02 0.02 0.01 0.01 0.02 0.01 0.01 0.02 0.05 0.06 0.05 0.05 0.05 0.04 0.04 0.05 0.06 0.05 0.04 0.03
0.03 0.01 0.01 0.01 0.01 0.01 0.01 0.01 0.01 0.01 0.00 0.00 0.01 0.02 0.02 0.01 0.01 0.01 0.02 0.02 0.02 0.03 0.02 0.02 0.03 0.02 0.01 0.02 0.01 0.01 0.02 0.03 0.04 0.04 0.04 0.04 0.04 0.04 0.04 0.04 0.04 0.04 0.05
0.04 0.04 0.03 0.02 0.02 0.02 0.01 0.01 0.02 0.02 0.01 0.01 0.01 0.01 0.01 0.01 0.01 0.01 0.01 0.01 0.01 0.02 0.02 0.02 0.03 0.03 0.03 0.02 0.02 0.02 0.03 0.03 0.04 0.03 0.02 0.03 0.04 0.04 0.05 0.06 0.05 0.05 0.05
0.02 0.06 0.04 0.03 0.02 0.02 0.02 0.03 0.02 0.04 0.04 0.03 0.03 0.02 0.02 0.02 0.02 0.02 0.02 0.01 0.01 0.01 0.02 0.03 0.03 0.03 0.03 0.03 0.04 0.05 0.05 0.03 0.02 0.02 0.01 0.02 0.02 0.04 0.04 0.06 0.07 0.09 0.08
0.01 0.01 0.02 0.03 0.03 0.02 0.02 0.03 0.04 0.05 0.04 0.03 0.02 0.02 0.02 0.02 0.03 0.02 0.02 0.02 0.01 0.01 0.01 0.03 0.03 0.03 0.03 0.04 0.05 0.05 0.05 0.04 0.03 0.03 0.02 0.02 0.02 0.03 0.03 0.04 0.04 0.04 0.06
0.01 0.01 0.01 0.02 0.02 0.02 0.02 0.03 0.03 0.03 0.02 0.02 0.02 0.01 0.01 0.02 0.02 0.02 0.02 0.02 0.01 0.01 0.01 0.02 0.03 0.03 0.03 0.03 0.04 0.04 0.04 0.04 0.03 0.03 0.02 0.02 0.03 0.03 0.03 0.03 0.03 0.02 0.03
0.01 0.01 0.01 0.02 0.02 0.02 0.02 0.02 0.02 0.02 0.02 0.01 0.01 0.01 0.01 0.01 0.02 0.01 0.01 0.01 0.02 0.02 0.02 0.02 0.02 0.03 0.03 0.03 0.03 0.02 0.02 0.03 0.02 0.02 0.02 0.01 0.02 0.02 0.02 0.02 0.02 0.03 0.03
0.03 0.02 0.02 0.01 0.01 0.01 0.01 0.02 0.02 0.01 0.01 0.01 0.01 0.01 0.01 0.01 0.01 0.01 0.01 0.01 0.02 0.02 0.01 0.01 0.02 0.03 0.02 0.02 0.01 0.01 0.01 0.01 0.01 0.02 0.02 0.01 0.01 0.01 0.01 0.01 0.02 0.02 0.02
0.02 0.02 0.02 0.01 0.01 0.02 0.01 0.01 0.02 0.01 0.00 0.00 0.00 0.00 0.01 0.01 0.01 0.01 0.01 0.00 0.01 0.01 0.01 0.01 0.02 0.03 0.02 0.01 0.01 0.01 0.01 0.00 0.01 0.03 0.02 0.01 0.00 0.01 0.01 0.01 0.01 0.02 0.02
0.02 0.02 0.02 0.01 0.01 0.01 0.01 0.01 0.01 0.01 0.01 0.00 0.00 0.01 0.01 0.01 0.01 0.01 0.00 0.00 0.00 0.01 0.01 0.01 0.01 0.02 0.02 0.01 0.01 0.01 0.00 0.00 0.01 0.01 0.00 0.00 0.00 0.01 0.01 0.01 0.01 0.01 0.02
0.02 0.02 0.02 0.02 0.01 0.01 0.01 0.01 0.01 0.01 0.01 0.01 0.00 0.00 0.00 0.01 0.01 0.01 0.01 0.01 0.01 0.01 0.00 0.01 0.01 0.01 0.01 0.01 0.01 0.01 0.01 0.00 0.01 0.00 0.00 0.00 0.00 0.01 0.01 0.00 0.01 0.01 0.01
0.02 0.02 0.03 0.02 0.02 0.01 0.01 0.01 0.02 0.02 0.02 0.01 0.01 0.00 0.00 0.01 0.01 0.01 0.00 0.00 0.01 0.01 0.01 0.01 0.01 0.01 0.01 0.01 0.01 0.01 0.01 0.00 0.00 0.00 0.00 0.00 0.00 0.00 0.00 0.00 0.00 0.01 0.01
0.02 0.02 0.02 0.03 0.02 0.01 0.01 0.01 0.02 0.02 0.02 0.02 0.01 0.01 0.01 0.00 0.01 0.01 0.01 0.01 0.01 0.01 0.01 0.00 0.00 0.00 0.00 0.00 0.00 0.00 0.00 0.00 0.00 0.00 0.00 0.00 0.00 0.00 0.00 0.00 0.00 0.01 0.01
0.02 0.02 0.02 0.02 0.03 0.03 0.03 0.02 0.02 0.02 0.02 0.02 0.02 0.01 0.01 0.01 0.01 0.01 0.01 0.01 0.01 0.01 0.01 0.00 0.00 0.00 0.01 0.01 0.01 0.01 0.01 0.01 0.01 0.02 0.02 0.01 0.01 0.01 0.00 0.00 0.00 0.01 0.02
0.02 0.03 0.03 0.04 0.04 0.04 0.04 0.03 0.03 0.02 0.01 0.01 0.02 0.02 0.02 0.02 0.02 0.02 0.01 0.01 0.01 0.01 0.01 0.01 0.01 0.01 0.01 0.02 0.02 0.03 0.03 0.03 0.03 0.02 0.02 0.02 0.01 0.01 0.01 0.00 0.00 0.01 0.02
0.02 0.02 0.03 0.03 0.04 0.04 0.04 0.03 0.02 0.01 0.01 0.01 0.01 0.01 0.01 0.01 0.02 0.02 0.01 0.01 0.01 0.01 0.01 0.01 0.01 0.01 0.01 0.01 0.01 0.02 0.02 0.02 0.01 0.01 0.01 0.01 0.01 0.01 0.00 0.00 0.00 0.01 0.02
0.02 0.03 0.03 0.02 0.02 0.02 0.04 0.03 0.02 0.01 0.01 0.01 0.01 0.01 0.02 0.02 0.02 0.03 0.02 0.01 0.01 0.01 0.01 0.01 0.00 0.00 0.00 0.01 0.01 0.01 0.01 0.01 0.01 0.00 0.00 0.01 0.01 0.01 0.00 0.00 0.00 0.01 0.02

GEFSMA_prec_meanprec_276.txt.gz
QPF
0.01 0.03 0.03 0.01 0.01 0.01 0.01 0.01 0.01 0.01 0.01 0.01 0.02 0.02 0.01 0.00 0.00 0.00 0.01 0.03 0.05 0.06 0.06 0.08 0.07 0.05 0.04 0.04 0.06 0.06 0.05 0.04 0.04 0.05 0.06 0.05 0.06 0.06 0.06 0.06 0.06 0.08 0.07
0.01 0.01 0.01 0.00 0.00 0.00 0.00 0.00 0.01 0.01 0.01 0.02 0.04 0.04 0.02 0.01 0.01 0.01 0.00 0.01 0.03 0.05 0.07 0.09 0.09 0.06 0.04 0.04 0.04 0.04 0.04 0.04 0.04 0.05 0.07 0.07 0.08 0.08 0.07 0.07 0.08 0.09 0.09
0.00 0.00 0.00 0.00 0.01 0.00 0.00 0.01 0.01 0.02 0.02 0.02 0.03 0.04 0.04 0.03 0.02 0.01 0.01 0.01 0.01 0.03 0.05 0.08 0.09 0.08 0.09 0.06 0.05 0.04 0.05 0.04 0.04 0.04 0.06 0.06 0.07 0.08 0.08 0.09 0.09 0.08 0.09
0.01 0.01 0.01 0.01 0.01 0.00 0.01 0.01 0.02 0.02 0.01 0.01 0.02 0.03 0.04 0.03 0.02 0.01 0.01 0.01 0.02 0.02 0.05 0.08 0.08 0.08 0.09 0.08 0.07 0.07 0.07 0.07 0.05 0.04 0.06 0.05 0.05 0.06 0.07 0.08 0.09 0.09 0.09
0.01 0.02 0.02 0.01 0.01 0.00 0.01 0.01 0.02 0.02 0.01 0.01 0.01 0.02 0.04 0.05 0.04 0.03 0.02 0.02 0.02 0.02 0.04 0.04 0.05 0.05 0.05 0.06 0.07 0.05 0.06 0.08 0.07 0.04 0.05 0.06 0.07 0.06 0.08 0.11 0.13 0.10 0.08
0.01 0.01 0.01 0.01 0.01 0.00 0.01 0.01 0.02 0.03 0.02 0.02 0.01 0.02 0.04 0.04 0.03 0.03 0.04 0.03 0.03 0.03 0.02 0.01 0.01 0.02 0.03 0.05 0.06 0.06 0.04 0.05 0.07 0.06 0.05 0.05 0.06 0.06 0.07 0.09 0.11 0.09 0.07
0.00 0.01 0.01 0.01 0.00 0.00 0.00 0.01 0.02 0.02 0.02 0.02 0.02 0.03 0.03 0.02 0.02 0.03 0.04 0.04 0.04 0.03 0.02 0.02 0.01 0.01 0.01 0.02 0.05 0.07 0.06 0.04 0.06 0.06 0.06 0.07 0.07 0.07 0.08 0.09 0.09 0.09 0.07
0.01 0.01 0.01 0.01 0.00 0.00 0.00 0.00 0.01 0.02 0.02 0.02 0.02 0.02 0.03 0.02 0.01 0.02 0.03 0.03 0.03 0.02 0.02 0.02 0.01 0.01 0.01 0.00 0.02 0.06 0.08 0.07 0.07 0.08 0.07 0.06 0.08 0.09 0.09 0.10 0.10 0.07 0.04
0.02 0.01 0.01 0.01 0.00 0.00 0.00 0.00 0.01 0.01 0.01 0.02 0.02 0.02 0.02 0.02 0.01 0.01 0.01 0.02 0.02 0.02 0.03 0.01 0.01 0.00 0.00 0.00 0.01 0.04 0.07 0.09 0.09 0.08 0.06 0.05 0.05 0.06 0.05 0.07 0.10 0.11 0.07
0.02 0.01 0.01 0.01 0.01 0.01 0.01 0.01 0.01 0.02 0.01 0.01 0.02 0.02 0.01 0.01 0.01 0.01 0.01 0.01 0.01 0.02 0.03 0.02 0.02 0.02 0.01 0.01 0.01 0.05 0.08 0.06 0.07 0.07 0.05 0.03 0.04 0.05 0.05 0.05 0.05 0.08 0.10
0.03 0.02 0.01 0.01 0.01 0.01 0.01 0.01 0.01 0.03 0.02 0.01 0.01 0.02 0.01 0.00 0.00 0.01 0.02 0.01 0.01 0.01 0.01 0.02 0.02 0.02 0.02 0.02 0.02 0.06 0.06 0.04 0.04 0.05 0.05 0.05 0.05 0.05 0.06 0.07 0.07 0.06 0.08
0.02 0.02 0.01 0.01 0.01 0.01 0.01 0.01 0.01 0.01 0.02 0.01 0.01 0.01 0.00 0.01 0.01 0.01 0.01 0.02 0.02 0.02 0.02 0.03 0.03 0.02 0.02 0.02 0.02 0.04 0.04 0.03 0.03 0.04 0.05 0.05 0.06 0.06 0.06 0.06 0.06 0.06 0.08
0.02 0.02 0.03 0.03 0.02 0.03 0.03 0.02 0.02 0.01 0.02 0.01 0.01 0.01 0.01 0.01 0.01 0.01 0.01 0.01 0.02 0.02 0.02 0.03 0.03 0.03 0.03 0.03 0.02 0.02 0.03 0.04 0.03 0.04 0.05 0.04 0.05 0.07 0.06 0.07 0.05 0.03 0.05
0.01 0.03 0.04 0.04 0.04 0.03 0.04 0.04 0.03 0.04 0.04 0.04 0.03 0.02 0.02 0.02 0.02 0.01 0.01 0.01 0.01 0.01 0.01 0.02 0.03 0.03 0.03 0.02 0.01 0.02 0.02 0.04 0.03 0.03 0.03 0.03 0.03 0.06 0.06 0.06 0.05 0.04 0.04
0.01 0.02 0.03 0.03 0.03 0.03 0.03 0.03 0.04 0.05 0.06 0.05 0.03 0.02 0.02 0.01 0.01 0.01 0.01 0.01 0.01 0.02 0.02 0.02 0.02 0.03 0.02 0.02 0.02 0.01 0.02 0.03 0.03 0.03 0.02 0.02 0.01 0.02 0.04 0.05 0.06 0.06 0.05
0.01 0.01 0.02 0.02 0.02 0.02 0.02 0.01 0.01 0.02 0.02 0.02 0.01 0.01 0.01 0.01 0.01 0.01 0.00 0.01 0.01 0.01 0.02 0.03 0.04 0.04 0.03 0.02 0.02 0.02 0.02 0.03 0.03 0.02 0.01 0.01 0.01 0.01 0.02 0.02 0.03 0.03 0.03
0.01 0.01 0.02 0.02 0.02 0.02 0.01 0.00 0.00 0.01 0.01 0.01 0.01 0.01 0.01 0.01 0.02 0.02 0.01 0.01 0.01 0.01 0.01 0.02 0.02 0.03 0.03 0.03 0.03 0.02 0.02 0.03 0.03 0.02 0.01 0.01 0.01 0.01 0.01 0.01 0.01 0.01 0.02
0.03 0.02 0.02 0.02 0.01 0.01 0.01 0.01 0.01 0.01 0.01 0.01 0.01 0.01 0.01 0.01 0.01 0.01 0.01 0.01 0.01 0.01 0.01 0.01 0.01 0.01 0.02 0.02 0.01 0.01 0.01 0.02 0.01 0.01 0.01 0.01 0.01 0.01 0.01 0.01 0.01 0.01 0.01
0.05 0.04 0.03 0.02 0.01 0.00 0.00 0.01 0.01 0.01 0.00 0.00 0.01 0.01 0.01 0.00 0.00 0.00 0.00 0.00 0.00 0.01 0.00 0.01 0.01 0.01 0.01 0.01 0.01 0.01 0.01 0.01 0.01 0.03 0.02 0.02 0.01 0.00 0.00 0.00 0.00 0.00 0.01
0.05 0.06 0.05 0.04 0.03 0.02 0.01 0.01 0.01 0.01 0.01 0.00 0.00 0.00 0.01 0.01 0.01 0.00 0.00 0.00 0.01 0.01 0.00 0.00 0.01 0.01 0.01 0.01 0.00 0.01 0.01 0.01 0.02 0.03 0.01 0.01 0.01 0.00 0.00 0.00 0.00 0.00 0.00
0.05 0.04 0.04 0.04 0.04 0.03 0.02 0.01 0.01 0.01 0.01 0.01 0.01 0.01 0.01 0.01 0.01 0.01 0.01 0.01 0.01 0.00 0.00 0.01 0.01 0.01 0.01 0.01 0.01 0.01 0.01 0.01 0.02 0.02 0.01 0.01 0.00 0.00 0.00 0.00 0.00 0.00 0.00
0.04 0.03 0.03 0.02 0.03 0.03 0.02 0.02 0.02 0.01 0.02 0.02 0.02 0.02 0.02 0.02 0.01 0.01 0.01 0.01 0.01 0.01 0.01 0.01 0.01 0.01 0.01 0.01 0.01 0.01 0.01 0.01 0.01 0.01 0.01 0.01 0.01 0.01 0.01 0.00 0.00 0.00 0.00
0.03 0.03 0.02 0.02 0.02 0.03 0.04 0.04 0.04 0.03 0.03 0.03 0.03 0.03 0.02 0.02 0.01 0.01 0.01 0.01 0.01 0.01 0.01 0.01 0.01 0.00 0.00 0.00 0.01 0.01 0.01 0.01 0.02 0.03 0.03 0.03 0.03 0.02 0.02 0.01 0.01 0.00 0.00
0.03 0.03 0.04 0.04 0.05 0.06 0.07 0.07 0.07 0.07 0.07 0.06 0.04 0.03 0.03 0.02 0.01 0.01 0.01 0.01 0.01 0.01 0.01 0.01 0.00 0.00 0.01 0.01 0.01 0.01 0.01 0.02 0.02 0.02 0.03 0.03 0.03 0.02 0.02 0.01 0.00 0.00 0.00
0.02 0.02 0.03 0.03 0.03 0.03 0.04 0.04 0.04 0.05 0.05 0.05 0.04 0.04 0.03 0.02 0.02 0.02 0.01 0.01 0.01 0.01 0.01 0.01 0.01 0.01 0.01 0.01 0.01 0.01 0.01 0.01 0.01 0.01 0.01 0.01 0.02 0.02 0.01 0.01 0.01 0.00 0.00
0.02 0.02 0.02 0.02 0.02 0.02 0.02 0.02 0.02 0.02 0.03 0.03 0.02 0.02 0.03 0.03 0.03 0.02 0.02 0.02 0.01 0.01 0.01 0.01 0.01 0.01 0.01 0.01 0.01 0.01 0.01 0.01 0.01 0.01 0.00 0.01 0.01 0.01 0.01 0.01 0.00 0.00 0.00

GEFSMA_prec_meanprec_282.txt.gz
QPF
0.02 0.01 0.01 0.01 0.01 0.01 0.01 0.01 0.01 0.00 0.02 0.02 0.02 0.01 0.01 0.01 0.01 0.02 0.03 0.03 0.06 0.09 0.10 0.09 0.08 0.06 0.05 0.05 0.05 0.04 0.04 0.03 0.02 0.03 0.03 0.04 0.05 0.05 0.05 0.05 0.04 0.05 0.05
0.01 0.02 0.02 0.01 0.01 0.01 0.00 0.00 0.00 0.00 0.01 0.02 0.02 0.01 0.00 0.01 0.01 0.01 0.02 0.03 0.03 0.05 0.08 0.10 0.09 0.07 0.06 0.04 0.05 0.04 0.04 0.03 0.03 0.03 0.04 0.05 0.04 0.04 0.04 0.05 0.05 0.05 0.07
0.01 0.01 0.01 0.01 0.01 0.01 0.01 0.00 0.00 0.01 0.01 0.01 0.02 0.02 0.01 0.01 0.01 0.01 0.01 0.02 0.03 0.02 0.05 0.07 0.10 0.11 0.08 0.05 0.05 0.04 0.03 0.03 0.03 0.02 0.02 0.03 0.04 0.04 0.04 0.05 0.05 0.07 0.11
0.01 0.01 0.01 0.01 0.00 0.01 0.01 0.01 0.01 0.01 0.01 0.01 0.01 0.02 0.02 0.01 0.01 0.01 0.02 0.02 0.02 0.02 0.03 0.05 0.09 0.10 0.10 0.09 0.07 0.05 0.04 0.04 0.03 0.02 0.02 0.03 0.04 0.05 0.05 0.07 0.07 0.08 0.08
0.02 0.02 0.01 0.01 0.00 0.01 0.01 0.00 0.01 0.01 0.01 0.02 0.02 0.02 0.03 0.02 0.01 0.02 0.01 0.01 0.01 0.02 0.04 0.07 0.09 0.07 0.07 0.09 0.08 0.05 0.04 0.04 0.05 0.04 0.05 0.05 0.05 0.05 0.05 0.05 0.07 0.12 0.12
0.01 0.01 0.02 0.01 0.00 0.01 0.01 0.01 0.01 0.01 0.01 0.02 0.03 0.03 0.03 0.03 0.02 0.02 0.02 0.01 0.01 0.01 0.04 0.07 0.07 0.04 0.03 0.05 0.06 0.06 0.05 0.05 0.04 0.04 0.04 0.04 0.05 0.05 0.05 0.04 0.05 0.13 0.18
0.01 0.01 0.01 0.01 0.01 0.01 0.01 0.01 0.02 0.03 0.02 0.02 0.03 0.04 0.05 0.04 0.02 0.03 0.02 0.02 0.02 0.02 0.03 0.04 0.04 0.03 0.02 0.02 0.05 0.06 0.05 0.04 0.04 0.04 0.03 0.03 0.03 0.04 0.04 0.05 0.06 0.09 0.14
0.01 0.01 0.02 0.01 0.01 0.01 0.01 0.01 0.02 0.04 0.03 0.03 0.03 0.04 0.06 0.07 0.04 0.03 0.02 0.02 0.03 0.02 0.03 0.02 0.03 0.03 0.03 0.03 0.03 0.05 0.07 0.06 0.06 0.05 0.03 0.04 0.04 0.04 0.05 0.05 0.06 0.08 0.10
0.02 0.02 0.02 0.01 0.01 0.01 0.01 0.01 0.01 0.02 0.03 0.03 0.02 0.03 0.05 0.06 0.04 0.03 0.02 0.02 0.02 0.02 0.02 0.02 0.01 0.02 0.02 0.03 0.04 0.04 0.05 0.07 0.09 0.06 0.05 0.05 0.04 0.04 0.04 0.03 0.03 0.06 0.08
0.03 0.03 0.03 0.02 0.01 0.01 0.01 0.01 0.01 0.02 0.03 0.04 0.02 0.02 0.04 0.04 0.03 0.02 0.03 0.02 0.02 0.02 0.02 0.02 0.02 0.02 0.01 0.02 0.05 0.05 0.04 0.05 0.07 0.07 0.08 0.06 0.05 0.05 0.03 0.02 0.02 0.02 0.04
0.03 0.02 0.02 0.02 0.01 0.01 0.01 0.01 0.02 0.04 0.05 0.03 0.03 0.02 0.03 0.04 0.03 0.02 0.03 0.03 0.03 0.03 0.02 0.02 0.02 0.02 0.02 0.03 0.06 0.06 0.04 0.04 0.04 0.06 0.08 0.07 0.06 0.04 0.04 0.03 0.02 0.01 0.02
0.01 0.01 0.01 0.03 0.03 0.02 0.01 0.01 0.02 0.03 0.06 0.05 0.03 0.03 0.02 0.02 0.02 0.01 0.01 0.02 0.03 0.04 0.03 0.01 0.01 0.02 0.02 0.04 0.06 0.04 0.02 0.03 0.03 0.04 0.06 0.06 0.06 0.04 0.04 0.05 0.03 0.02 0.02
0.01 0.01 0.01 0.03 0.06 0.04 0.03 0.02 0.02 0.02 0.03 0.04 0.03 0.03 0.03 0.02 0.02 0.02 0.01 0.01 0.01 0.03 0.03 0.02 0.02 0.03 0.03 0.03 0.03 0.03 0.02 0.03 0.03 0.04 0.05 0.05 0.06 0.04 0.05 0.07 0.04 0.03 0.03
0.01 0.01 0.01 0.02 0.04 0.04 0.04 0.03 0.03 0.03 0.02 0.03 0.04 0.05 0.04 0.04 0.04 0.04 0.03 0.01 0.01 0.03 0.03 0.03 0.02 0.02 0.03 0.03 0.03 0.03 0.03 0.04 0.03 0.04 0.05 0.05 0.05 0.05 0.06 0.05 0.03 0.03 0.04
0.00 0.00 0.00 0.01 0.02 0.03 0.02 0.02 0.02 0.03 0.03 0.05 0.07 0.06 0.06 0.04 0.03 0.02 0.03 0.02 0.02 0.03 0.03 0.03 0.02 0.01 0.01 0.02 0.02 0.03 0.03 0.03 0.04 0.04 0.04 0.04 0.04 0.06 0.07 0.05 0.04 0.04 0.04
0.00 0.01 0.01 0.01 0.01 0.01 0.02 0.02 0.02 0.03 0.04 0.04 0.03 0.03 0.03 0.03 0.02 0.01 0.01 0.01 0.01 0.02 0.02 0.02 0.01 0.01 0.01 0.01 0.02 0.02 0.01 0.02 0.03 0.03 0.03 0.03 0.03 0.04 0.05 0.03 0.02 0.02 0.02
0.01 0.01 0.01 0.01 0.01 0.01 0.01 0.02 0.02 0.02 0.02 0.02 0.02 0.02 0.02 0.02 0.02 0.01 0.01 0.01 0.01 0.01 0.01 0.01 0.01 0.01 0.01 0.01 0.02 0.02 0.01 0.01 0.01 0.02 0.01 0.02 0.02 0.03 0.02 0.01 0.01 0.01 0.00
0.02 0.02 0.02 0.02 0.01 0.01 0.01 0.01 0.01 0.01 0.01 0.01 0.01 0.02 0.02 0.02 0.02 0.01 0.01 0.01 0.01 0.01 0.01 0.01 0.01 0.01 0.01 0.02 0.03 0.02 0.02 0.02 0.01 0.02 0.01 0.01 0.01 0.02 0.02 0.01 0.01 0.01 0.00
0.03 0.02 0.02 0.02 0.01 0.01 0.00 0.00 0.00 0.01 0.01 0.01 0.00 0.01 0.02 0.01 0.01 0.01 0.00 0.01 0.01 0.00 0.00 0.00 0.00 0.01 0.01 0.02 0.03 0.03 0.02 0.02 0.02 0.02 0.01 0.01 0.01 0.01 0.01 0.01 0.01 0.01 0.01
0.04 0.04 0.03 0.02 0.01 0.01 0.01 0.01 0.01 0.01 0.00 0.00 0.00 0.00 0.00 0.00 0.01 0.01 0.01 0.01 0.01 0.00 0.00 0.00 0.00 0.01 0.01 0.01 0.02 0.03 0.03 0.02 0.01 0.01 0.01 0.01 0.01 0.01 0.01 0.01 0.01 0.01 0.00
0.05 0.05 0.04 0.04 0.04 0.03 0.02 0.02 0.01 0.01 0.01 0.01 0.00 0.00 0.00 0.00 0.00 0.01 0.00 0.01 0.01 0.01 0.01 0.01 0.01 0.01 0.01 0.01 0.02 0.02 0.03 0.02 0.01 0.01 0.01 0.01 0.01 0.01 0.01 0.01 0.01 0.00 0.00
0.02 0.02 0.02 0.02 0.03 0.04 0.03 0.02 0.02 0.01 0.01 0.01 0.01 0.01 0.01 0.01 0.00 0.00 0.01 0.01 0.01 0.01 0.01 0.01 0.01 0.01 0.01 0.01 0.01 0.01 0.02 0.01 0.01 0.01 0.01 0.01 0.01 0.02 0.01 0.01 0.01 0.00 0.00
0.02 0.02 0.01 0.02 0.03 0.04 0.05 0.04 0.03 0.02 0.02 0.02 0.02 0.02 0.02 0.02 0.02 0.01 0.01 0.01 0.00 0.01 0.01 0.01 0.01 0.01 0.01 0.02 0.01 0.01 0.01 0.01 0.01 0.01 0.01 0.01 0.01 0.02 0.02 0.01 0.01 0.00 0.00
0.02 0.02 0.03 0.03 0.02 0.04 0.05 0.05 0.06 0.05 0.03 0.03 0.03 0.04 0.05 0.05 0.05 0.04 0.03 0.02 0.01 0.01 0.01 0.01 0.00 0.00 0.01 0.01 0.01 0.01 0.01 0.01 0.01 0.01 0.00 0.01 0.01 0.01 0.01 0.01 0.01 0.01 0.00
0.03 0.03 0.04 0.04 0.04 0.04 0.05 0.04 0.04 0.04 0.05 0.05 0.04 0.03 0.03 0.03 0.03 0.03 0.02 0.02 0.02 0.02 0.02 0.02 0.01 0.01 0.01 0.01 0.01 0.01 0.00 0.01 0.01 0.01 0.01 0.01 0.01 0.01 0.01 0.01 0.01 0.01 0.00
0.04 0.04 0.04 0.04 0.03 0.03 0.05 0.05 0.05 0.04 0.04 0.04 0.04 0.04 0.03 0.02 0.02 0.02 0.01 0.01 0.01 0.02 0.02 0.02 0.02 0.01 0.01 0.00 0.01 0.00 0.01 0.01 0.01 0.01 0.01 0.01 0.01 0.01 0.01 0.01 0.01 0.01 0.01